Home > Weather > Landeck > Past weeks

Flag for Austria Weather for the Past 2 Weeks in Landeck, Tyrol, Austria

Now
44 °F

Quite cool.


Feels Like: 44 °F
Forecast: 35 / 53 °F
Wind: 1 mph from West

Location: Landeck

Current Time: May 3, 2016 at 2:21:29 AM

Latest Report: May 3, 2016 at 1:00 AM


Visibility: N/A

Pressure: 30.19 "Hg (27.43 "Hg at 784m altitude)

Humidity: 93%

Dew Point: 42 °F

Location of LandeckLocation

Historic Weather in Landeck — Graph

°F

Landeck Temperature Yesterday

Maximum temperature yesterday: 49 °F (at 4:00 PM)
Minimum temperature yesterday: 41 °F (at 8:00 AM)
Average temperature yesterday: 45 °F

High & Low Weather Summary for the Past Weeks

 TemperatureHumidityPressure
High76 °F (Apr 21, 4:00 PM)93% (May 2, 2:00 AM)30.37 "Hg (May 2, 2:00 AM)
Low27 °F (Apr 28, 5:00 AM)16% (Apr 21, 4:00 PM)29.50 "Hg (Apr 26, 3:00 PM)
Average48 °F58%29.98 "Hg
* Reported Apr 18 3:00 AM — May 3 1:00 AM, Landeck, Weather by CustomWeather, © 2016

Note: Actual official high and low records may vary slightly from our data, if they occured in-between our weather recording intervals... More about our weather records

Advertising

Landeck Weather History for the Previous 24 Hours

Scroll right to see more
 ConditionsComfort  
Time TempWeatherWind HumidityBarometerVisibility
1:00 AM
Tue, May 3
44 °FQuite cool.1 mph93%30.19 "HgN/A
12:00 AM44 °FQuite cool.1 mph93%30.19 "HgN/A
10:00 PM
Mon, May 2
45 °FCool.1 mph93%30.18 "HgN/A
9:00 PM46 °FCool.1 mph91%30.16 "HgN/A
8:00 PM47 °FCool.No wind90%30.14 "HgN/A
7:00 PM47 °FCool.No wind90%30.14 "HgN/A
6:00 PM47 °FCool.1 mph87%30.14 "HgN/A
5:00 PM48 °FFog.No wind86%30.14 "HgN/A
4:00 PM49 °FCool.1 mph82%30.13 "HgN/A
3:00 PM49 °FCool.1 mph76%30.13 "HgN/A
2:00 PM48 °FCool.1 mph85%30.14 "HgN/A
1:00 PM46 °FCool.1 mph87%30.16 "HgN/A
12:00 PM46 °FCool.No wind87%30.16 "HgN/A
10:00 AM44 °FQuite cool.No wind85%30.18 "HgN/A
9:00 AM42 °FQuite cool.No wind88%30.19 "HgN/A
8:00 AM41 °FQuite cool.No wind91%30.19 "HgN/A
3:00 AM41 °FFog.1 mph91%30.17 "HgN/A
2:00 AM42 °FQuite cool.1 mph93%30.17 "HgN/A
Weather by CustomWeather, © 2016

See weather overviewHow to use our weather pages